Re: [闲聊] 韩国主播是播到哭了吗?(影片)

看板 Lol
时间
留言 40则留言,37人参与讨论
推嘘 35推 0嘘 5→
※ 引述《an80174 (seveneleven)》之铭言: : RNG VS GEN G : 最后一波团战 : 抓到一个对方闪现失误 : 结果出乎意料GG比赛 : 韩国主播激动一边喊著Letme 一边好像哭了 : 看到影片倒是蛮好笑的 : https://youtu.be/cyAxreKy3s0
认真回 主播 : seongkae 赛评 : cloudtemplar, kangqui kangqui : CUVEE又去偷拆了,那么(GEN.G)要挡一下中路吧 cloudtemplar : 哦?哦?(赛恩开了大绝) seongkae : 冲过来了X3,会到哪里了? (cloudtemplar看到赛恩撞到刹雅开始大叫) seongkae : 冲到这里把人敲起来了吗? kangqui : 不是啊,这到底是什么? seongkae : (RULER)一下子就倒下了吧 kangqui : 哇! LETME (cloudtemplar持续哀号中) cloudtemplar : CUVEE拜托你了 seongkae : CUVEE在偷拆, CUVEE可以拆到哪里呢? cloudtemplar&kangqui : 但是对面要结束了,游戏要结束了,必须要过来挡吧~ seongkae : (RNG)推掉中路了,中路水晶兵营爆了,(看到眼上TP亮起来后)要再过来吗? kangqui : GG了,一波了 cloudtemplar : 必须要挡下啊,拜托你了CUVEE!(卡蜜儿死掉后再次惨叫) seongkae : 结果一次(开团)就可以有很好的RNG kangqui : 到底谁会给LETME低评价? 强制开团就是LETME阿 cloudtemplar : 强制开团的关键性原因就是(先和主播一起看主堡爆掉喊GG) seongkae : 游戏结束了GG~ cloudtemplar : (延续刚刚的话),RULER刹雅没有大阿,这样的话(RNG)就那样直接上来抓了,在CUVEE在边线的时候,对面也有一点爆掉的感觉,就直接果断开团把游戏贯穿了~ -- Sent from my Windows -- ※ 发信站: 批踢踢实业坊(ptt.cc), 来自: 114.25.183.3 ※ 文章网址: https://www.ptt.cc/bbs/LoL/M.1539274165.A.371.html
1Fgve50714: 用心推 10/12 00:10
2FSpiceKey: cloudtemplar : RRRRRRRRRRRRRRRRRRR 10/12 00:10
3Filove640: 听力大师 10/12 00:11
4FChowDerLu: 最后的举局~ 才是本体 10/12 00:11
5Fpiyo0604: 好猛喔 10/12 00:11
6Fjustinxue: 原来哀号的是CT哈哈 10/12 00:11
7FCchild: RRRRRRRRRR GG~~ 10/12 00:12
8Fx4068: 真的好想赢中国rrrrrrrrrrrrrrrr~ 10/12 00:12
9FCchild: 韩语听力大师 好强 推个 10/12 00:13
10Fzjk4451: 蛮喜欢韩国播报气氛的 有点像足球 10/12 00:13
11Fpoboq0002: 他有没有哭著大喊 ruler倒了 10/12 00:13
12Fpiyo0604: 补推 10/12 00:14
13Feqwer: 强 10/12 00:14
14Fqk3380888: 原来是甜不辣叫的喔XDDD 10/12 00:15
15Fbiger0502: 真心喜欢看韩国台 10/12 00:15
16Fa3221715: 有点猛 10/12 00:16
17Floveqq0910: 推 10/12 00:17
18Ftw15: 推 10/12 00:18
19Fxerioa044438: 推翻译 10/12 00:19
20Fubiqui: 猛xd 10/12 00:19
21Ftsainalunba4: 推 10/12 00:20
22FQuietlake: 推 10/12 00:21
23Fgiraffegood: 推 10/12 00:25
24Fhoe1101: 甜不辣想到当初那个把你吸回来的球了吗 10/12 00:26
25Flunguai: 推 10/12 00:33
26Fholices: 甜不辣真的很好笑 10/12 00:38
27Fb605152000: 推 10/12 00:38
28Fqazwsx855193: 用心推爆 10/12 00:38
29Fchirenkevin: 厉害 推 10/12 00:42
30Fck2oliver5: 笑死输了跟世界末日一样 10/12 00:46
31Fkinomon: 感谢翻译 10/12 00:46
32FRinHizakura: 觉得rng真的很会抓空窗 想到之前马尔抓到没水银强 10/12 00:48
33FRinHizakura: 开那场 10/12 00:48
34Fgunlinuu: 谢翻译 10/12 01:06
35Faglet: CUVEE念起来好像哭北 10/12 01:48
36Fphilip81501: CT你管上也很多帮韩国队讲话的影片 真的爱国 10/12 02:04
37Fkelvin0004: 推翻译 10/12 03:08
38Fdarkhouse: 觉得rng很会抓空窗+1 10/12 08:09
39Filovekanina: 韩语听力考试欸 10/12 08:29
40FOUIUO: 推 10/12 08:49
看更多 daemansalam 的文章,或回到 lol 看板

完整讨论串

留言数 标题 作者 日期
144 [闲聊] 韩国主播是播到哭了吗?(影片) an80174 2018-10-11T23:00:58
40 >> Re: [闲聊] 韩国主播是播到哭了吗?(影片) daemansalam 2018-10-12T00:09:23